Location: Tr�vern
(48.0333°N, 4.6000°W)
Time: 17:56:28
(UTC+00:00)

SeaSat 1 - Pass Details

Date: 14 July 2020
Orbit: 744 x 748 km, 108.0° (Epoch: 12 August)

Event Time Altitude Azimuth Distance (km) Brightness Sun altitude
Rises 02:14:33 0° 30° (NNE) 3,202 7.6 -16.1°
Reaches altitude 10° 02:16:51 10° 34° (NE) 2,274 6.3 -15.9°
Maximum altitude 02:21:46 66° 116° (ESE) 819 2.6 -15.5°
Enters shadow 02:24:47 23° 194° (SSW) 1,538 3.5 -15.3°
